Location: Silverdale
(47.6506°N, 122.6941°W)
Time: 05:02:04
(UTC+00:00)

Courier 1B Rocket - Pass Details

Date: 07 October 2022
Orbit: 920 x 1202 km, 28.3° (Epoch: 28 November)

Event Time Altitude Azimuth Distance (km) Brightness Sun altitude
Rises 03:05:33 0° 232° (SW) 3,815 8.8 -15.3°
Reaches altitude 10° 03:09:55 10° 207° (SSW) 2,793 7.6 -16.0°
Maximum altitude 03:12:58 13° 180° (S) 2,501 7.0 -16.5°
Drops below altitude 10° 03:15:57 10° 153° (SSE) 2,708 7.0 -17.0°
Enters shadow 03:16:07 10° 151° (SSE) 2,733 7.0 -17.0°
